This demonstration page uses our WeatherBlox Daily Observations layout. Learn more.

Left ArrowRight Arrow

41.86663, -103.66717

Hourly Observations for June 5, 2016

Temp ( °F °C ) Dew Point ( °F °C ) Humidity (%) Winds ( mph kmh ) Pressure ( in mb ) Visibility ( mi km ) Precip ( " mm )
12:53 am 00:53 Clear 51 10.6 40 4.4 66 66 E 5 7 30.09 1019 10 16 0.00 0.00
1:53 am 01:53 Clear 51 10.6 40 4.4 66 66 NNE 3 6 30.09 1019 10 16 0.00 0.00
2:53 am 02:53 Clear 50 10 39 3.9 66 66 NNE 3 6 30.07 1018 10 16 0.00 0.00
3:53 am 03:53 Clear 46 7.8 39 3.9 77 77 N 3 6 30.07 1018 10 16 0.00 0.00
4:53 am 04:53 Clear 48 8.9 39 3.9 71 71 NW 3 6 30.05 1018 10 16 0.00 0.00
5:53 am 05:53 Sunny 48 8.9 39 3.9 71 71 NE 3 6 30.06 1018 10 16 0.00 0.00
6:53 am 06:53 Sunny 55 12.8 43 6.1 64 64 Calm 30.05 1018 10 16 0.00 0.00
7:53 am 07:53 Sunny 60 15.6 44 6.7 56 56 SSE 6 9 30.03 1017 10 16 0.00 0.00
8:53 am 08:53 Sunny 67 19.4 44 6.7 44 44 SE 8 13 30.03 1017 10 16 0.00 0.00
9:53 am 09:53 Sunny 72 22.2 47 8.3 41 41 SE 5 7 30.01 1016 10 16 0.00 0.00
10:53 am 10:53 Sunny 77 25 48 8.9 36 36 VRB 3 6 29.99 1016 10 16 0.00 0.00
11:53 am 11:53 Partly Cloudy 80 26.7 48 8.9 33 33 undefined N/A 29.97 1015 10 16 0.00 0.00
12:53 pm 12:53 Partly Cloudy 84 28.9 47 8.3 27 27 Calm 29.96 1014 10 16 0.00 0.00
1:53 pm 13:53 Mostly Sunny 86 30 42 5.6 21 21 VRB 3 6 29.93 1014 10 16 0.00 0.00
2:53 pm 14:53 Sunny 86 30 43 6.1 22 22 N 9 15 29.92 1013 10 16 0.00 0.00
3:53 pm 15:53 Partly Cloudy 88 31.1 43 6.1 21 21 N 8 13 29.91 1013 10 16 0.00 0.00
4:53 pm 16:53 Mostly Cloudy 84 28.9 42 5.6 23 23 NNW 6 9 29.91 1013 10 16 0.00 0.00
5:53 pm 17:53 Mostly Cloudy 86 30 42 5.6 21 21 NNE 18 30 29.90 1013 10 16 0.00 0.00
6:53 pm 18:53 Sunny 83 28.3 40 4.4 22 22 NNE 13 20 29.90 1013 10 16 0.00 0.00
7:53 pm 19:53 Sunny 76 24.4 42 5.6 30 30 NE 9 15 29.93 1013 10 16 0.00 0.00
8:53 pm 20:53 Clear 67 19.4 43 6.1 42 42 ENE 8 13 29.94 1014 10 16 0.00 0.00
9:53 pm 21:53 Clear 63 17.2 43 6.1 48 48 Calm 29.95 1014 10 16 0.00 0.00
10:53 pm 22:53 Clear 59 15 44 6.7 58 58 E 8 13 29.94 1014 10 16 0.00 0.00
11:53 pm 23:53 Clear 61 16.1 42 5.6 50 50 E 5 7 29.93 1014 10 16 0.00 0.00

Powered by AerisWeather